Arlington, WA
on Tuesday, January 8, 2013

Tuesday
Previous Day Next Day
Daily Summary
 ActualAverageRecord
Temperature
Mean Temperature °F °F  
Max Temperature 51°F 42°F 55°F (2012)
Min Temperature 41°F 22°F 13°F (1979)
Degree Days
Heating Degree Days 19    
Moisture
Dew Point 42°F   
Average Humidity 86    
Maximum Humidity 93    
Minimum Humidity 76    
Precipitation
Precipitation 0.03 in in in ()
Wind
Wind Speed 8 mph   
Max Wind Speed 34 mph   
Max Gust Speed 43 mph   
Visibility 9 miles   
Events     
Averages and records for this station are not official NWS values.
Key: T is trace of precipitation, MM is missing value
Source: NWS Daily Summary
Seasonal Weather Averages
Time(PST)TemperatureDew PointHumidity Pressure Visibility Wind DirectionWind SpeedGust SpeedPrecipitationEvents Conditions
12:15 AM 42.8°F 37.4°F 81% 30.18 in 10.0 miles Calm Calm - N/A   Overcast
12:35 AM 42.8°F 37.4°F 81% 30.17 in 10.0 miles Calm Calm - N/A   Overcast
12:55 AM 42.8°F 37.4°F 81% 30.18 in 10.0 miles Calm Calm - N/A   Overcast
1:15 AM 42.8°F 37.4°F 81% 30.18 in 10.0 miles Calm Calm - N/A   Overcast
1:35 AM 42.8°F 39.2°F 87% 30.17 in 10.0 miles Calm Calm - N/A   Overcast
1:55 AM 44.6°F 39.2°F 81% 30.17 in 10.0 miles ESE 5.8 mph - N/A   Overcast
2:15 AM 44.6°F 39.2°F 81% 30.17 in 10.0 miles East 5.8 mph - N/A   Overcast
2:35 AM 44.6°F 37.4°F 76% 30.16 in 10.0 miles East 4.6 mph - N/A   Overcast
2:55 AM 44.6°F 37.4°F 76% 30.17 in 10.0 miles ESE 4.6 mph - N/A   Overcast
3:15 AM 44.6°F 39.2°F 81% 30.16 in 10.0 miles ESE 6.9 mph - N/A   Overcast
3:35 AM 42.8°F 39.2°F 87% 30.16 in 10.0 miles East 5.8 mph - N/A   Overcast
3:55 AM 42.8°F 39.2°F 87% 30.15 in 10.0 miles East 5.8 mph - N/A   Overcast
4:15 AM 42.8°F 39.2°F 87% 30.14 in 10.0 miles ESE 5.8 mph - N/A   Overcast
4:35 AM 44.6°F 39.2°F 81% 30.14 in 10.0 miles ESE 4.6 mph - N/A   Overcast
4:55 AM 44.6°F 39.2°F 81% 30.13 in 10.0 miles Calm Calm - N/A   Overcast
5:15 AM 42.8°F 39.2°F 87% 30.12 in 10.0 miles Calm Calm - N/A   Overcast
5:35 AM 42.8°F 39.2°F 87% 30.12 in 10.0 miles Calm Calm - N/A   Overcast
5:55 AM 42.8°F 39.2°F 87% 30.12 in 10.0 miles Calm Calm - N/A   Overcast
6:15 AM 42.8°F 39.2°F 87% 30.11 in 10.0 miles SE 5.8 mph - N/A   Overcast
6:35 AM 42.8°F 39.2°F 87% 30.10 in 10.0 miles SSE 5.8 mph - N/A   Overcast
6:55 AM 42.8°F 39.2°F 87% 30.08 in 10.0 miles SSE 6.9 mph - N/A   Overcast
7:15 AM 42.8°F 39.2°F 87% 30.07 in 10.0 miles SE 5.8 mph - N/A   Overcast
7:35 AM 42.8°F 39.2°F 87% 30.06 in 10.0 miles SE 6.9 mph - N/A   Overcast
7:55 AM 42.8°F 39.2°F 87% 30.06 in 9.0 miles SE 6.9 mph - N/A   Overcast
8:15 AM 42.8°F 37.4°F 81% 30.06 in 10.0 miles SE 8.1 mph - N/A   Overcast
8:35 AM 41.0°F 37.4°F 87% 30.06 in 10.0 miles SE 5.8 mph - N/A   Mostly Cloudy
8:55 AM 41.0°F 37.4°F 87% 30.05 in 10.0 miles SE 3.5 mph - N/A   Overcast
9:15 AM 41.0°F 37.4°F 87% 30.05 in 8.0 miles Calm Calm - N/A   Overcast
9:35 AM 41.0°F 37.4°F 87% 30.03 in 8.0 miles East 3.5 mph - 0.01 in   Overcast
9:55 AM 41.0°F 37.4°F 87% 30.02 in 7.0 miles East 3.5 mph - 0.01 in   Overcast
10:15 AM 41.0°F 37.4°F 87% 30.00 in 10.0 miles Calm Calm - N/A   Overcast
10:35 AM 41.0°F 37.4°F 87% 29.99 in 10.0 miles Calm Calm - N/A   Overcast
10:55 AM 41.0°F 37.4°F 87% 29.97 in 10.0 miles Calm Calm - N/A   Overcast
11:15 AM 41.0°F 37.4°F 87% 29.95 in 10.0 miles Calm Calm - N/A   Overcast
11:55 AM 42.8°F 39.2°F 87% 29.93 in 10.0 miles SSE 3.5 mph - N/A   Overcast
12:15 PM 42.8°F 39.2°F 87% 29.92 in 10.0 miles SE 8.1 mph - N/A   Overcast
12:35 PM 44.6°F 39.2°F 81% 29.91 in 10.0 miles SE 5.8 mph - N/A   Overcast
12:55 PM 44.6°F 41.0°F 87% 29.90 in 10.0 miles SE 10.4 mph - N/A   Overcast
1:15 PM 44.6°F 42.8°F 93% 29.89 in 10.0 miles SSE 5.8 mph - N/A   Overcast
1:35 PM 44.6°F 42.8°F 93% 29.88 in 10.0 miles ESE 9.2 mph - N/A   Overcast
1:55 PM 46.4°F 42.8°F 87% 29.86 in 10.0 miles SE 10.4 mph - N/A   Overcast
2:15 PM 46.4°F 44.6°F 93% 29.85 in 10.0 miles SSE 10.4 mph - N/A   Overcast
2:35 PM 46.4°F 44.6°F 93% 29.84 in 10.0 miles SE 13.8 mph 19.6 mph N/A   Overcast
2:55 PM 48.2°F 44.6°F 87% 29.83 in 10.0 miles SSE 26.5 mph 35.7 mph 0.01 in   Overcast
3:15 PM 48.2°F 44.6°F 87% 29.82 in 10.0 miles South 11.5 mph 32.2 mph N/A   Overcast
3:35 PM 48.2°F 46.4°F 93% 29.80 in 10.0 miles SE 20.7 mph 33.4 mph N/A   Overcast
3:55 PM 48.2°F 46.4°F 93% 29.78 in 10.0 miles SE 19.6 mph 27.6 mph N/A   Overcast
4:15 PM 48.2°F 46.4°F 93% 29.77 in 10.0 miles SSE 18.4 mph - N/A   Overcast
4:35 PM 50.0°F 46.4°F 87% 29.76 in 10.0 miles SSE 31.1 mph 39.1 mph N/A   Overcast
4:55 PM 51.8°F 46.4°F 82% 29.74 in 10.0 miles SSE 31.1 mph 40.3 mph N/A   Overcast
5:15 PM 50.0°F 46.4°F 87% 29.74 in 10.0 miles SSE 34.5 mph 42.6 mph N/A   Overcast
5:35 PM 50.0°F 46.4°F 87% 29.74 in 7.0 miles South 33.4 mph 39.1 mph N/A   Overcast
5:55 PM 50.0°F 46.4°F 87% 29.75 in 10.0 miles SSE 31.1 mph 38.0 mph N/A   Overcast
6:15 PM 51.8°F 46.4°F 82% 29.73 in 10.0 miles SSE 32.2 mph 39.1 mph N/A   Overcast
6:35 PM 50.0°F 46.4°F 87% 29.73 in 8.0 miles SSE 29.9 mph 39.1 mph N/A   Overcast
6:55 PM 50.0°F 46.4°F 87% 29.72 in 7.0 miles South 33.4 mph 40.3 mph N/A   Overcast
7:15 PM 50.0°F 46.4°F 87% 29.73 in 3.0 miles South 29.9 mph 39.1 mph N/A   Overcast
7:35 PM 50.0°F 46.4°F 87% 29.74 in 3.0 miles South 28.8 mph 39.1 mph N/A   Overcast
7:55 PM 50.0°F 46.4°F 87% 29.74 in 4.0 miles South 31.1 mph 36.8 mph N/A   Overcast
8:15 PM 50.0°F 46.4°F 87% 29.73 in 5.0 miles South 27.6 mph 35.7 mph N/A   Overcast
8:35 PM 50.0°F 46.4°F 87% 29.74 in 5.0 miles South 24.2 mph 31.1 mph N/A   Overcast
8:55 PM 50.0°F 46.4°F 87% 29.75 in 8.0 miles South 20.7 mph 29.9 mph N/A   Overcast
9:15 PM 50.0°F 46.4°F 87% 29.74 in 5.0 miles SSE 19.6 mph - N/A   Overcast
9:55 PM 50.0°F 46.4°F 87% 29.74 in 8.0 miles South 13.8 mph - 0.01 in   Overcast
10:15 PM 50.0°F 46.4°F 87% 29.73 in 10.0 miles South 13.8 mph - N/A   Overcast
10:35 PM 50.0°F 46.4°F 87% 29.73 in 10.0 miles South 15.0 mph 19.6 mph N/A   Overcast
10:55 PM 50.0°F 46.4°F 87% 29.73 in 10.0 miles South 16.1 mph 21.9 mph N/A   Overcast
11:15 PM 51.8°F 46.4°F 82% 29.72 in 10.0 miles South 17.3 mph 26.5 mph N/A   Overcast
11:35 PM 51.8°F 46.4°F 82% 29.72 in 10.0 miles South 20.7 mph 26.5 mph N/A   Overcast
11:55 PM 50.0°F 46.4°F 87% 29.72 in 10.0 miles South 16.1 mph 23.0 mph N/A   Overcast
Moon Phase
Jan. 08 Jan. 11 Jan. 18 Jan. 26 Feb. 03
Sunrise:07:57 AM (PST) Moon Rise:04:35 AM (PST)1/8
Sunset:04:33 PM (PST) Moon Set:01:41 PM (PST)1/8

Copyright © 2014 The Weather Underground, Inc.